CFG4YZ EDDL-LGKR

Flight info

Callsign CFG4YZ
Flight time N/A
Altitude FL350
Route DODEN Y853 BOMBI DETEV DINKU M867 XERUM BAVAX RADIZ EVAXI EPODO RASTU DEPET UNIPA VAKSU RODON LIMJA N732 PITAS
Aircraft A21N/M-SDE3FGHIRWY/LB1

Departure

Time 2026-05-04 04:14
Airport Düsseldorf Airport (EDDL)

Arrival

Time N/A
Airport Corfu Ioannis Kapodistrias International Airport (LGKR)
Time Latitude Longitude Altitude Speed Heading
2026-05-04 04:10 51.28941 6.78146 149 ft 0 kts 141°
2026-05-04 04:11 51.28940 6.78148 149 ft 2 kts 140°
2026-05-04 04:11 51.28918 6.78177 150 ft 7 kts 139°
2026-05-04 04:11 51.28902 6.78247 150 ft 10 kts 45°
2026-05-04 04:12 51.28978 6.78245 149 ft 14 kts 321°
2026-05-04 04:12 51.29071 6.78216 149 ft 16 kts 37°
2026-05-04 04:12 51.29170 6.78362 149 ft 22 kts 44°
2026-05-04 04:12 51.29319 6.78535 149 ft 28 kts 32°
2026-05-04 04:13 51.29445 6.78563 149 ft 12 kts 353°
2026-05-04 04:13 51.29509 6.78470 150 ft 23 kts 256°
2026-05-04 04:13 51.29303 6.78025 150 ft 86 kts 229°
2026-05-04 04:13 51.28850 6.77074 150 ft 142 kts 232°
2026-05-04 04:14 51.28183 6.75681 296 ft 175 kts 231°
2026-05-04 04:14 51.27435 6.74119 912 ft 176 kts 232°
2026-05-04 04:14 51.26708 6.72545 1594 ft 177 kts 234°
2026-05-04 04:14 51.25992 6.70971 2180 ft 184 kts 234°
2026-05-04 04:15 51.25219 6.69279 2642 ft 196 kts 234°
2026-05-04 04:15 51.24394 6.67490 3017 ft 211 kts 234°
2026-05-04 04:15 51.23455 6.65482 3325 ft 232 kts 231°
2026-05-04 04:15 51.22218 6.63898 3690 ft 250 kts 204°
2026-05-04 04:16 51.20561 6.63461 4198 ft 262 kts 178°
2026-05-04 04:16 51.18686 6.63812 4990 ft 265 kts 175°
2026-05-04 04:16 51.16816 6.64162 5764 ft 267 kts 176°
2026-05-04 04:16 51.14972 6.64982 6496 ft 275 kts 152°
2026-05-04 04:17 51.13556 6.67197 7232 ft 284 kts 123°
2026-05-04 04:17 51.12958 6.70269 7917 ft 293 kts 94°
2026-05-04 04:17 51.13066 6.73565 8598 ft 296 kts 87°
2026-05-04 04:17 51.13244 6.76961 9219 ft 301 kts 88°
2026-05-04 04:18 51.13412 6.80439 9832 ft 306 kts 88°
2026-05-04 04:18 51.13565 6.83917 10391 ft 313 kts 89°
2026-05-04 04:18 51.13708 6.87542 10726 ft 327 kts 89°
2026-05-04 04:18 51.13853 6.91382 11025 ft 342 kts 89°
2026-05-04 04:19 51.13997 6.95373 11316 ft 357 kts 89°
2026-05-04 04:19 51.14145 6.99456 11607 ft 370 kts 89°
2026-05-04 04:19 51.14303 7.03823 11888 ft 384 kts 89°
2026-05-04 04:19 51.14463 7.08311 12146 ft 397 kts 89°
2026-05-04 04:20 51.14628 7.12986 12385 ft 410 kts 89°
2026-05-04 04:20 51.14792 7.17671 12642 ft 420 kts 88°
2026-05-04 04:20 51.14956 7.22418 13102 ft 424 kts 88°
2026-05-04 04:20 51.15125 7.27359 13633 ft 426 kts 88°
2026-05-04 04:21 51.15292 7.32351 14126 ft 429 kts 89°
2026-05-04 04:21 51.15452 7.37232 14590 ft 432 kts 89°
2026-05-04 04:21 51.15328 7.42115 14995 ft 432 kts 103°
2026-05-04 04:21 51.14154 7.46677 15440 ft 426 kts 125°
2026-05-04 04:22 51.12073 7.50430 15949 ft 421 kts 139°
2026-05-04 04:22 51.09821 7.53765 16370 ft 424 kts 140°
2026-05-04 04:22 51.07497 7.57202 16790 ft 427 kts 140°
2026-05-04 04:22 51.05203 7.60635 17208 ft 429 kts 139°
2026-05-04 04:23 51.02962 7.64025 17601 ft 432 kts 139°
2026-05-04 04:23 51.00637 7.67556 17978 ft 435 kts 140°
2026-05-04 04:23 50.98318 7.70959 18357 ft 435 kts 142°
2026-05-04 04:23 50.95826 7.74141 18732 ft 435 kts 147°
2026-05-04 04:24 50.93241 7.76973 19071 ft 436 kts 150°
2026-05-04 04:24 50.90538 7.79649 19408 ft 438 kts 152°
2026-05-04 04:24 50.87751 7.82386 19764 ft 440 kts 152°
2026-05-04 04:24 50.84949 7.85134 20115 ft 442 kts 152°
2026-05-04 04:25 50.82284 7.87748 20428 ft 444 kts 152°
2026-05-04 04:25 50.79542 7.90435 20742 ft 445 kts 152°
2026-05-04 04:25 50.76779 7.93142 21075 ft 447 kts 152°
2026-05-04 04:25 50.73996 7.95864 21390 ft 448 kts 152°
2026-05-04 04:26 50.71248 7.98550 21668 ft 450 kts 152°
2026-05-04 04:26 50.68460 8.01272 21963 ft 451 kts 152°
2026-05-04 04:26 50.65752 8.03910 22231 ft 453 kts 152°
2026-05-04 04:26 50.62993 8.06611 22503 ft 455 kts 151°
2026-05-04 04:27 50.60290 8.09493 22761 ft 458 kts 148°
2026-05-04 04:27 50.57666 8.12631 23005 ft 461 kts 145°
2026-05-04 04:27 50.55135 8.15936 23265 ft 463 kts 144°
2026-05-04 04:27 50.52623 8.19231 23578 ft 463 kts 144°
2026-05-04 04:28 50.50098 8.22540 23921 ft 462 kts 144°
2026-05-04 04:28 50.47557 8.25862 24253 ft 461 kts 144°
2026-05-04 04:28 50.44967 8.29245 24588 ft 461 kts 144°
2026-05-04 04:28 50.42362 8.32645 24923 ft 461 kts 144°
2026-05-04 04:29 50.39765 8.36026 25251 ft 460 kts 144°
2026-05-04 04:29 50.37108 8.39480 25589 ft 460 kts 144°
2026-05-04 04:29 50.34510 8.42853 25931 ft 459 kts 144°
2026-05-04 04:29 50.31913 8.46219 26291 ft 458 kts 144°
2026-05-04 04:30 50.30490 8.48064 26473 ft 458 kts 144°